Weather History for Narsarsuaq, Greenland

Change the Weather History Date:

Tuesday, April 15, 2014

  Actual Average Record
Temperature  
Mean Temperature 16 °F -  
Max Temperature 23 °F 44 °F 57 °F (2009)
Min Temperature 10 °F 30 °F 8 °F (2011)
Degree Days  
Heating Degree Days 48    
Moisture  
Dew Point -3 °F    
Average Humidity 35    
Maximum Humidity 67    
Minimum Humidity 16    
Precipitation  
Precipitation 0.00 in 0.05 in - ()
Sea Level Pressure  
Sea Level Pressure 29.87 in    
Wind  
Wind Speed 5 mph ()    
Max Wind Speed 9 mph    
Max Gust Speed -    
Visibility 9.1 miles    
Events      
Averages and records for this station are not official NWS values.
T = Trace of Precipitation, MM = Missing Value Source: Averaged Metar Reports

Daily Weather History Graph

Daily Weather History Graph

Search for Another Location

Airport:

Trip Planner

Search our weather history database for the weather conditions in past years. The results will help you decide how hot, cold, wet, or windy it might be!

Date:

Astronomy

Apr. 15, 2014 Rise Set
Actual Time 5:41 AM WGST 8:23 PM WGST
Civil Twilight 4:53 AM WGST 9:12 PM WGST
Nautical Twilight 3:47 AM WGST 10:19 PM WGST
Astronomical Twilight 2:05 AM WGST 12:07 AM WGST
Moon 9:07 PM WGST (4/15) 5:44 AM WGST (4/15)
Length of Visible Light 16h 19m
Length of Day
14h 42m
Full, 100% of the Moon is Illuminated
Apr 15
Full
Apr 22
Last Quarter
Apr 29
New
May 7
First Quarter
May 14
Full

Hourly Weather History & Observations

Time (WGST) Temp. Windchill Dew Point Humidity Pressure Visibility Wind Dir Wind Speed Gust Speed Precip Events Conditions
12:00 AM 15 °F - -1 °F 32% 29.95 in 25 mi WSW 4.6 mph - -  
1:00 AM 15 °F - 1 °F 38% 29.95 in 31 mi SW 9.2 mph - -  
2:00 AM 14 °F - 0 °F 39% 29.95 in 28 mi NE 4.6 mph - -  
3:00 AM 12 °F - -1 °F 40% 29.95 in 28 mi ENE 3.5 mph - -  
3:50 AM 10.4 °F 0.8 °F 1.4 °F 67% 29.92 in 6.2 mi ENE 5.8 mph - N/A   Scattered Clouds
4:00 AM 12 °F - -1 °F 40% 29.95 in 28 mi ENE 3.5 mph - -  
5:00 AM 10 °F - -2 °F 44% 29.95 in 31 mi ENE 6.9 mph - -  
5:50 AM 10.4 °F -1.5 °F -0.4 °F 62% 29.95 in 6.2 mi ENE 8.1 mph - N/A   Partly Cloudy
6:00 AM 10 °F - -2 °F 43% 29.95 in 28 mi ENE 8.1 mph - -  
6:50 AM 10.4 °F -0.4 °F -0.4 °F 62% 29.95 in 6.2 mi ENE 6.9 mph - N/A   Partly Cloudy
7:00 AM 10 °F - -4 °F 38% 29.95 in 31 mi ENE 6.9 mph - -  
7:50 AM 10.4 °F -1.5 °F -2.2 °F 57% 29.95 in 6.2 mi ENE 8.1 mph - N/A   Partly Cloudy
8:00 AM 11 °F - -5 °F 33% 29.95 in 25 mi ENE 8.1 mph - -  
8:50 AM 12.2 °F 0.7 °F -2.2 °F 53% 29.92 in 6.2 mi ENE 8.1 mph - N/A   Partly Cloudy
9:00 AM 13 °F - -5 °F 29% 29.94 in 28 mi ENE 6.9 mph - -  
9:50 AM 15.8 °F 8.6 °F -0.4 °F 49% 29.92 in 6.2 mi NNE 4.6 mph - N/A   Partly Cloudy
10:00 AM 15 °F - -3 °F 29% 29.93 in 12 mi NNE 4.6 mph - -  
10:50 AM 17.6 °F 10.7 °F 1.4 °F 49% 29.89 in 6.2 mi NNE 4.6 mph - N/A   Scattered Clouds
11:00 AM 17 °F - -3 °F 25% 29.91 in 16 mi NE 5.8 mph - -   Scattered Clouds
11:50 AM 17.6 °F 10.7 °F -0.4 °F 45% 29.89 in 6.2 mi NE 4.6 mph - N/A   Partly Cloudy
12:00 PM 18 °F - -2 °F 26% 29.89 in 11 mi NE 4.6 mph - -  
12:50 PM 19.4 °F - -2.2 °F 39% 29.86 in 6.2 mi NE 2.3 mph - N/A   Clear
1:00 PM 19 °F - -5 °F 20% 29.87 in 17 mi ENE 2.3 mph - -  
1:50 PM 19.4 °F - -0.4 °F 42% 29.83 in 6.2 mi NE 2.3 mph - N/A   Clear
2:00 PM 20 °F - -4 °F 20% 29.84 in 12 mi NE 2.3 mph - -  
2:50 PM 21.2 °F 16.4 °F -2.2 °F 36% 29.83 in 6.2 mi NNE 3.5 mph - N/A   Partly Cloudy
3:00 PM 21 °F - -5 °F 18% 29.83 in 12 mi NNE 3.5 mph - -  
3:50 PM 23.0 °F - 3.2 °F 43% 29.80 in 6.2 mi NW 2.3 mph - N/A   Mostly Cloudy
4:00 PM 21 °F - -4 °F 18% 29.82 in 17 mi NE 2.3 mph - -   Scattered Clouds
4:50 PM 21.2 °F 13.6 °F -0.4 °F 39% 29.77 in 6.2 mi NNE 5.8 mph - N/A   Scattered Clouds
5:00 PM 21 °F - -5 °F 18% 29.78 in 22 mi ENE 6.9 mph - -  
5:50 PM 21.2 °F 12.6 °F -4.0 °F 33% 29.74 in 6.2 mi ENE 6.9 mph - N/A   Scattered Clouds
6:00 PM 21 °F - -6 °F 16% 29.75 in 17 mi ENE 6.9 mph - -   Scattered Clouds
7:00 PM 21 °F - -5 °F 18% 29.74 in 25 mi NNE 2.3 mph - -  
8:00 PM 19 °F - -4 °F 21% 29.73 in 25 mi East 4.6 mph - -  
9:00 PM 17 °F - -5 °F 22% 29.72 in 31 mi East 4.6 mph - -  
10:00 PM 16 °F - -6 °F 22% 29.72 in 31 mi ENE 1.2 mph - -   Scattered Clouds
11:00 PM 17 °F - -9 °F 17% 29.72 in 28 mi East 5.8 mph - -